#timestamp,LO_Frequency,Hit,StdDev 
1668988815.8,286047002.9,N
1668988835.7,286047005.5,N
1668988855.5,286047002.9,N
1668988875.3,286047005.8,N
1668988895.2,286047007.6,Y
1668988915.9,286047005.9,P
1668988935.7,286047005.2,N
1668988955.6,286047006.9,P
1668988975.4,286047007.2,Y
1668988995.2,286046999.7,P
1668989015.1,286047002.8,N
1668989016.0,286047002.8,N
1668989035.8,286047002.1,N
1668989055.6,286047000.2,N
1668989075.5,286047000.1,N
1668989095.3,286047002.5,N
1668989115.1,286047000.4,N
1668989135.9,286047002.4,N
1668989155.7,286047001.4,N
1668989175.5,286047004.0,N
1668989195.4,286047003.8,N
1668989215.2,286047005.7,Y
1668989235.0,286046999.8,P
1668989235.9,286046999.8,N
1668989255.8,286047000.7,N
1668989275.6,286046999.8,N
1668989295.4,286047001.9,N
1668989315.3,286047001.4,N
1668989335.1,286047003.0,Y
1668989355.9,286047005.6,P
1668989375.7,286047004.5,N
1668989395.5,286047005.1,N
1668989415.4,286047005.1,N
1668989435.2,286047005.1,N
1668989455.0,286047004.9,N
1668989455.9,286047004.9,Y
1668989475.8,286047002.1,P
1668989495.6,286047000.6,N
1668989515.4,286047002.5,N
1668989535.3,286047000.6,N
1668989555.1,286047000.7,N
1668989556.0,286047000.7,N
1668989575.8,286047000.5,N
1668989595.7,286047001.0,N
1668989615.5,286047000.1,N
1668989635.3,286046999.9,N
1668989655.2,286047000.8,N
1668989675.9,286047000.8,N
1668989695.7,286047002.7,N
1668989715.6,286047001.8,N
1668989735.4,286047001.7,N
1668989755.2,286047004.4,Y
1668989775.1,286047002.4,P
1668989776.0,286047002.4,P
1668989795.8,286046999.7,N
1668989815.6,286047002.2,N
1668989835.5,286047002.5,N
1668989855.3,286047003.8,Y
1668989875.1,286047000.0,P
1668989895.9,286047000.1,N
1668989915.7,286047001.3,N
1668989935.5,286047002.2,N
1668989955.4,286047004.0,Y
1668989975.2,286047001.6,P
1668989995.0,286047002.6,P
1668989996.0,286047002.6,P
1668990015.8,286047001.9,N
1668990035.6,286047004.2,Y
1668990055.5,286047002.4,P
1668990075.3,286047002.6,P
1668990095.1,286047001.0,P
1668990115.9,286047001.2,N
1668990135.7,286046998.5,N
1668990155.5,286046998.7,N
1668990175.4,286046998.7,N
1668990195.2,286047000.5,N
1668990215.0,286047001.0,N
1668990215.9,286047001.0,N
1668990235.8,286046999.2,N
1668990285.6,286046997.1,E
1668990295.5,286046999.0,N
1668990315.4,286046998.1,P
1668990335.2,286047000.4,N
1668990355.0,286047000.2,N
1668990355.9,286047000.2,N
1668990375.8,286047002.8,Y
1668990395.6,286046999.9,P
1668990415.4,286047004.4,P
1668990435.3,286047002.1,N
1668990455.1,286047003.8,N
1668990475.8,286047003.8,N
1668990495.7,286047004.3,N
1668990515.5,286047001.4,N
1668990535.3,286047003.1,N
1668990555.2,286047003.2,N
1668990575.0,286047001.8,N
1668990575.9,286047001.8,N
1668990595.7,286047003.7,N
1668990615.6,286047004.3,N
1668990635.4,286047002.1,N
1668990655.2,286047004.0,N
1668990675.1,286047003.6,N
1668990676.0,286047003.6,N
1668990695.8,286047004.2,N
1668990715.7,286047005.9,Y
1668990735.5,286047004.2,P
1668990755.3,286047001.6,N
1668990775.2,286047004.3,P
1668990795.9,286047001.7,N
1668990815.7,286047002.0,N
1668990835.6,286047002.2,N
1668990855.4,286047003.5,Y
1668990875.2,286046998.4,P
1668990895.1,286046994.9,N
1668990896.0,286046994.9,N
1668990915.8,286046998.2,N
1668990935.6,286046999.8,N
1668990955.5,286047002.5,N
1668990975.3,286047001.3,N
1668990995.1,286047002.5,N
1668991015.9,286047000.6,N
1668991035.7,286047002.4,N
1668991055.5,286047003.1,N
1668991075.4,286047005.6,N
1668991095.2,286047005.8,N
1668991115.0,286047003.9,N
1668991115.9,286047003.9,N
1668991135.8,286047005.7,N
1668991155.6,286047003.3,N
1668991175.4,286047005.6,N
1668991195.3,286047005.0,N
1668991215.1,286047006.3,N
1668991235.8,286047008.2,N
1668991255.7,286047009.0,N
1668991275.5,286047006.2,N
1668991295.3,286047007.1,N
1668991315.2,286047006.8,N
1668991335.0,286047008.7,N
1668991335.9,286047008.7,N
1668991355.7,286047008.4,N
1668991375.6,286047008.1,N
1668991395.4,286047008.2,N
1668991415.2,286047008.4,N
1668991435.1,286047010.4,N
1668991436.0,286047010.4,N
1668991455.8,286047009.6,Y
1668991475.6,286047003.1,P
1668991495.5,286047005.8,P
1668991515.3,286047002.9,N
1668991535.2,286047005.5,Y
1668991555.9,286047003.5,P
1668991575.7,286047002.5,P
1668991595.6,286047000.2,N
1668991615.4,286047000.8,N
1668991635.2,286046996.6,N
1668991655.1,286047000.7,N
1668991656.0,286047000.7,N
1668991675.8,286046995.2,N
1668991695.6,286046996.7,N
1668991715.5,286046998.6,N
1668991735.3,286047000.9,N
1668991755.1,286047002.2,N
1668991775.9,286047001.8,N
1668991795.7,286047001.4,N
1668991815.5,286047003.9,N
1668991835.4,286047001.3,N
1668991855.2,286047002.5,N
1668991875.0,286047002.6,N
1668991875.9,286047002.6,N
1668991895.8,286047004.3,N
1668991915.6,286047004.3,N
1668991935.4,286047003.1,N
1668991955.3,286047005.6,N
1668991975.1,286047005.7,N
1668991995.8,286047005.2,N
1668992015.7,286047005.9,N
1668992035.5,286047005.7,N
1668992055.3,286047003.3,N
1668992075.2,286047006.0,N
1668992095.0,286047005.8,N
1668992095.9,286047005.8,N
1668992115.7,286047007.4,N
1668992135.6,286047004.7,N
1668992155.4,286047005.5,N
1668992175.2,286047005.9,N
1668992195.1,286047004.2,N
1668992196.0,286047004.2,N
1668992215.8,286047005.6,N
1668992235.7,286047005.7,N
1668992255.5,286047006.0,Y
1668992275.3,286047000.2,P
1668992295.2,286047002.4,N
1668992315.9,286047002.3,N
1668992335.7,286047002.8,N
1668992355.6,286047000.3,N
1668992375.4,286047000.5,N
1668992395.2,286047000.2,N
